| time (UTC) | temp C | wind direction | speed KPH | gust KPH | rain 1hr cm | rain 24hr cm | rain mn cm | humidity % | barometer mb |
| 20260503035147 | 5 | 225 | 0.0 | 0.0 | 0.00 | 0.05 | 0.00 | 84 | 1019.8 |
| 20260503034647 | 5 | 225 | 0.0 | 0.0 | 0.00 | 0.05 | 0.00 | 84 | 1019.8 |
| 20260503034147 | 5 | 225 | 0.0 | 0.0 | 0.00 | 0.05 | 0.00 | 84 | 1019.8 |
| 20260503033647 | 5 | 225 | 0.0 | 0.0 | 0.00 | 0.05 | 0.00 | 84 | 1019.8 |
| 20260503033147 | 5 | 225 | 0.0 | 0.0 | 0.00 | 0.05 | 0.00 | 84 | 1019.7 |
| 20260503032147 | 5 | 158 | 0.0 | 0.0 | 0.00 | 0.05 | 0.00 | 83 | 1019.7 |
| 20260503031647 | 5 | 158 | 0.0 | 0.0 | 0.00 | 0.05 | 0.00 | 83 | 1019.7 |
| 20260503031147 | 6 | 158 | 0.0 | 0.0 | 0.00 | 0.05 | 0.00 | 83 | 1019.8 |
| 20260503030647 | 6 | 158 | 0.0 | 0.0 | 0.00 | 0.05 | 0.00 | 83 | 1019.7 |
| 20260503030147 | 6 | 158 | 0.0 | 0.0 | 0.00 | 0.00 | 0.00 | 83 | 1019.8 |
| 20260503025647 | 6 | 158 | 0.0 | 0.0 | 0.00 | 0.05 | 0.00 | 83 | 1019.8 |
| 20260503025147 | 6 | 158 | 0.0 | 0.0 | 0.00 | 0.05 | 0.00 | 83 | 1019.8 |
| 20260503024647 | 6 | 158 | 0.0 | 0.0 | 0.00 | 0.05 | 0.00 | 83 | 1019.9 |
| 20260503024147 | 6 | 158 | 0.0 | 0.0 | 0.00 | 0.05 | 0.00 | 82 | 1020.0 |
| 20260503023647 | 6 | 158 | 0.0 | 0.0 | 0.00 | 0.05 | 0.00 | 82 | 1020.0 |
| 20260503023148 | 6 | 158 | 0.0 | 0.0 | 0.00 | 0.05 | 0.00 | 82 | 1020.0 |
| 20260503022648 | 6 | 158 | 0.0 | 0.0 | 0.00 | 0.05 | 0.00 | 81 | 1020.0 |
| 20260503022147 | 6 | 158 | 0.0 | 0.0 | 0.00 | 0.05 | 0.00 | 81 | 1020.0 |
| 20260503021647 | 6 | 158 | 0.0 | 0.0 | 0.00 | 0.05 | 0.00 | 82 | 1020.0 |
| 20260503021147 | 6 | 158 | 0.0 | 0.0 | 0.00 | 0.05 | 0.00 | 82 | 1020.0 |
| 20260503020647 | 6 | 158 | 0.0 | 0.0 | 0.00 | 0.05 | 0.00 | 82 | 1020.1 |
| 20260503020147 | 6 | 158 | 0.0 | 0.0 | 0.00 | 0.00 | 0.00 | 81 | 1020.1 |
| 20260503015647 | 6 | 158 | 0.0 | 0.0 | 0.00 | 0.05 | 0.00 | 82 | 1020.2 |
| 20260503015147 | 6 | 158 | 0.0 | 0.0 | 0.00 | 0.05 | 0.00 | 81 | 1020.1 |
| 20260503014647 | 6 | 158 | 0.0 | 0.0 | 0.00 | 0.05 | 0.00 | 81 | 1020.1 |
| 20260503014147 | 6 | 158 | 0.0 | 0.0 | 0.00 | 0.05 | 0.00 | 80 | 1020.1 |
| 20260503013647 | 7 | 158 | 0.0 | 0.0 | 0.00 | 0.05 | 0.00 | 80 | 1020.1 |
| 20260503013147 | 7 | 158 | 0.0 | 0.0 | 0.00 | 0.05 | 0.00 | 80 | 1020.3 |
| 20260503012647 | 7 | 158 | 0.0 | 0.0 | 0.00 | 0.05 | 0.00 | 81 | 1020.3 |
| 20260503012147 | 7 | 225 | 0.0 | 0.0 | 0.00 | 0.05 | 0.00 | 80 | 1020.3 |
| 20260503011647 | 7 | 225 | 0.0 | 0.0 | 0.00 | 0.05 | 0.00 | 80 | 1020.3 |
| 20260503011147 | 7 | 225 | 0.0 | 0.0 | 0.00 | 0.05 | 0.00 | 80 | 1020.3 |
| 20260503010647 | 7 | 360 | 0.0 | 0.0 | 0.00 | 0.05 | 0.00 | 80 | 1020.4 |
| 20260503010147 | 7 | 360 | 0.0 | 0.0 | 0.00 | 0.00 | 0.00 | 73 | 1020.3 |
| 20260503005647 | 7 | 360 | 0.0 | 1.6 | 0.00 | 0.00 | 0.00 | 73 | 1020.3 |
| 20260503005147 | 7 | 180 | 0.0 | 0.0 | 0.00 | 0.00 | 0.00 | 73 | 1020.2 |
| 20260503004647 | 7 | 45 | 0.0 | 0.0 | 0.00 | 0.00 | 0.00 | 73 | 1020.4 |
| 20260503004147 | 7 | 45 | 0.0 | 0.0 | 0.00 | 0.00 | 0.00 | 72 | 1020.4 |
| 20260503003647 | 7 | 45 | 0.0 | 3.2 | 0.00 | 0.00 | 0.00 | 72 | 1020.4 |
| 20260503003147 | 7 | 45 | 0.0 | 0.0 | 0.00 | 0.00 | 0.00 | 72 | 1020.5 |
| 20260503002647 | 7 | 45 | 0.0 | 0.0 | 0.00 | 0.00 | 0.00 | 71 | 1020.5 |
| 20260503002147 | 7 | 45 | 0.0 | 0.0 | 0.00 | 0.00 | 0.00 | 71 | 1020.4 |
| 20260503001648 | 8 | 45 | 0.0 | 0.0 | 0.00 | 0.00 | 0.00 | 71 | 1020.7 |
| 20260503001147 | 8 | 180 | 0.0 | 0.0 | 0.00 | 0.00 | 0.00 | 71 | 1020.6 |
| 20260503000647 | 8 | 180 | 0.0 | 0.0 | 0.00 | 0.00 | 0.00 | 71 | 1020.6 |
| 20260503000147 | 8 | 180 | 0.0 | 0.0 | 0.00 | 0.00 | 0.00 | 71 | 1020.6 |
| 20260502235647 | 8 | 225 | 0.0 | 0.0 | 0.00 | 0.00 | 0.00 | 71 | 1020.6 |
| 20260502235147 | 8 | 45 | 0.0 | 1.6 | 0.00 | 0.00 | 0.00 | 71 | 1020.7 |
| 20260502234647 | 8 | 45 | 0.0 | 1.6 | 0.00 | 0.00 | 0.00 | 71 | 1020.7 |
| 20260502234147 | 8 | 180 | 0.0 | 0.0 | 0.00 | 0.00 | 0.00 | 71 | 1020.8 |
| 20260502233647 | 9 | 45 | 0.0 | 3.2 | 0.00 | 0.00 | 0.00 | 72 | 1020.8 |
| 20260502233147 | 9 | 45 | 0.0 | 3.2 | 0.00 | 0.00 | 0.00 | 72 | 1020.8 |
| 20260502232649 | 8 | 225 | 1.6 | 3.2 | 0.00 | 0.00 | 0.00 | 71 | 1020.9 |
| 20260502232146 | 8 | 158 | 0.0 | 0.0 | 0.00 | 0.00 | 0.00 | 71 | 1020.9 |
| 20260502231647 | 8 | 158 | 0.0 | 0.0 | 0.00 | 0.00 | 0.00 | 71 | 1020.9 |
| 20260502231147 | 8 | 158 | 0.0 | 0.0 | 0.00 | 0.00 | 0.00 | 71 | 1020.9 |
| 20260502230647 | 8 | 158 | 0.0 | 0.0 | 0.00 | 0.00 | 0.00 | 70 | 1021.0 |
| 20260502230147 | 8 | 158 | 0.0 | 0.0 | 0.00 | 0.00 | 0.00 | 70 | 1021.1 |
| 20260502225647 | 9 | 158 | 0.0 | 0.0 | 0.00 | 0.00 | 0.00 | 70 | 1021.1 |
| 20260502225147 | 9 | 158 | 0.0 | 0.0 | 0.00 | 0.00 | 0.00 | 70 | 1021.1 |
| 20260502224647 | 9 | 158 | 0.0 | 0.0 | 0.00 | 0.00 | 0.00 | 68 | 1021.2 |
| 20260502224146 | 9 | 158 | 0.0 | 0.0 | 0.00 | 0.00 | 0.00 | 68 | 1021.2 |
| 20260502223647 | 9 | 158 | 0.0 | 0.0 | 0.00 | 0.00 | 0.00 | 68 | 1021.1 |
| 20260502223147 | 10 | 158 | 0.0 | 1.6 | 0.00 | 0.00 | 0.00 | 68 | 1021.1 |
| 20260502222647 | 10 | 158 | 0.0 | 1.6 | 0.00 | 0.00 | 0.00 | 68 | 1021.1 |
| 20260502222147 | 10 | 225 | 0.0 | 1.6 | 0.00 | 0.00 | 0.00 | 68 | 1021.2 |
| 20260502221647 | 10 | 225 | 0.0 | 0.0 | 0.00 | 0.00 | 0.00 | 67 | 1021.3 |
| 20260502221147 | 10 | 225 | 0.0 | 3.2 | 0.00 | 0.00 | 0.00 | 67 | 1021.2 |
| 20260502220648 | 10 | 225 | 1.6 | 3.2 | 0.00 | 0.00 | 0.00 | 67 | 1021.3 |
| 20260502220147 | 10 | 225 | 1.6 | 3.2 | 0.00 | 0.00 | 0.00 | 66 | 1021.2 |
| 20260502215647 | 10 | 225 | 0.0 | 1.6 | 0.00 | 0.05 | 0.00 | 66 | 1021.1 |
| 20260502215147 | 10 | 225 | 0.0 | 3.2 | 0.00 | 0.05 | 0.00 | 65 | 1021.2 |
| 20260502214647 | 10 | 225 | 0.0 | 0.0 | 0.00 | 0.05 | 0.00 | 65 | 1021.1 |
| 20260502214146 | 11 | 225 | 0.0 | 0.0 | 0.00 | 0.05 | 0.00 | 65 | 1021.1 |
| 20260502213646 | 11 | 180 | 0.0 | 1.6 | 0.00 | 0.05 | 0.00 | 65 | 1021.2 |
| 20260502213147 | 11 | 225 | 1.6 | 3.2 | 0.00 | 0.05 | 0.00 | 65 | 1021.3 |
| 20260502212646 | 11 | 135 | 0.0 | 0.0 | 0.00 | 0.05 | 0.00 | 65 | 1021.2 |
| 20260502212146 | 11 | 225 | 1.6 | 3.2 | 0.00 | 0.05 | 0.00 | 65 | 1021.2 |
| 20260502211647 | 11 | 225 | 1.6 | 3.2 | 0.00 | 0.05 | 0.00 | 65 | 1021.0 |
| 20260502211147 | 11 | 270 | 0.0 | 3.2 | 0.00 | 0.05 | 0.00 | 65 | 1021.2 |
| 20260502210647 | 11 | 225 | 1.6 | 3.2 | 0.00 | 0.05 | 0.00 | 64 | 1021.2 |
| 20260502210146 | 11 | 270 | 0.0 | 1.6 | 0.00 | 0.00 | 0.00 | 64 | 1021.2 |
| 20260502205647 | 11 | 225 | 1.6 | 3.2 | 0.00 | 0.05 | 0.00 | 63 | 1021.2 |
| 20260502205146 | 11 | 225 | 0.0 | 0.0 | 0.00 | 0.05 | 0.00 | 62 | 1021.3 |
| 20260502204647 | 11 | 270 | 0.0 | 0.0 | 0.00 | 0.05 | 0.00 | 62 | 1021.4 |
| 20260502204146 | 11 | 180 | 0.0 | 0.0 | 0.00 | 0.05 | 0.00 | 62 | 1021.5 |
| 20260502203647 | 11 | 180 | 0.0 | 0.0 | 0.00 | 0.05 | 0.00 | 62 | 1021.5 |
| 20260502203146 | 12 | 225 | 0.0 | 3.2 | 0.00 | 0.05 | 0.00 | 62 | 1021.4 |
| 20260502202647 | 12 | 270 | 0.0 | 0.0 | 0.00 | 0.05 | 0.00 | 60 | 1021.5 |
| 20260502202147 | 12 | 270 | 0.0 | 0.0 | 0.00 | 0.05 | 0.00 | 60 | 1021.5 |
| 20260502201646 | 12 | 315 | 0.0 | 0.0 | 0.00 | 0.05 | 0.00 | 60 | 1021.6 |
| 20260502201147 | 12 | 315 | 0.0 | 1.6 | 0.00 | 0.05 | 0.00 | 56 | 1021.7 |
| 20260502200647 | 12 | 225 | 1.6 | 3.2 | 0.00 | 0.05 | 0.00 | 56 | 1021.6 |
| 20260502200146 | 12 | 135 | 0.0 | 3.2 | 0.00 | 0.00 | 0.00 | 56 | 1021.7 |
| 20260502195646 | 12 | 270 | 0.0 | 3.2 | 0.00 | 0.05 | 0.00 | 56 | 1021.5 |
| 20260502195146 | 13 | 360 | 1.6 | 3.2 | 0.00 | 0.05 | 0.00 | 55 | 1021.4 |
| 20260502194646 | 13 | 270 | 1.6 | 6.4 | 0.00 | 0.05 | 0.00 | 56 | 1021.4 |
| 20260502194146 | 12 | 315 | 0.0 | 1.6 | 0.00 | 0.05 | 0.00 | 55 | 1021.4 |
| 20260502193646 | 12 | 315 | 1.6 | 3.2 | 0.00 | 0.05 | 0.00 | 54 | 1021.3 |
| 20260502193146 | 13 | 315 | 0.0 | 0.0 | 0.00 | 0.05 | 0.00 | 53 | 1021.4 |
| 20260502192646 | 13 | 315 | 1.6 | 3.2 | 0.00 | 0.05 | 0.00 | 52 | 1021.3 |
| 20260502192146 | 13 | 315 | 0.0 | 0.0 | 0.00 | 0.05 | 0.00 | 52 | 1021.2 |
| 20260502191646 | 13 | 315 | 0.0 | 3.2 | 0.00 | 0.05 | 0.00 | 52 | 1021.1 |
| 20260502191146 | 13 | 315 | 0.0 | 0.0 | 0.00 | 0.05 | 0.00 | 50 | 1021.2 |
| 20260502190646 | 14 | 315 | 0.0 | 0.0 | 0.00 | 0.05 | 0.00 | 50 | 1021.3 |
| 20260502190146 | 14 | 315 | 0.0 | 3.2 | 0.00 | 0.00 | 0.00 | 50 | 1021.1 |
| 20260502185646 | 15 | 270 | 0.0 | 0.0 | 0.00 | 0.05 | 0.00 | 50 | 1021.1 |
| 20260502185146 | 15 | 270 | 0.0 | 0.0 | 0.00 | 0.05 | 0.00 | 49 | 1020.9 |
| 20260502184646 | 15 | 270 | 0.0 | 0.0 | 0.00 | 0.05 | 0.00 | 47 | 1021.0 |
| 20260502184146 | 16 | 225 | 0.0 | 3.2 | 0.00 | 0.05 | 0.00 | 46 | 1020.8 |
| 20260502183646 | 16 | 225 | 0.0 | 0.0 | 0.00 | 0.05 | 0.00 | 46 | 1020.9 |
| 20260502183146 | 16 | 225 | 0.0 | 3.2 | 0.00 | 0.05 | 0.00 | 45 | 1020.8 |
| 20260502182647 | 17 | 225 | 1.6 | 3.2 | 0.00 | 0.05 | 0.00 | 44 | 1020.7 |
| 20260502182146 | 17 | 270 | 0.0 | 3.2 | 0.00 | 0.05 | 0.00 | 40 | 1020.7 |
| 20260502181646 | 18 | 225 | 1.6 | 3.2 | 0.00 | 0.05 | 0.00 | 40 | 1020.6 |
| 20260502181146 | 18 | 225 | 1.6 | 3.2 | 0.00 | 0.05 | 0.00 | 38 | 1020.7 |
| 20260502180646 | 18 | 225 | 1.6 | 4.8 | 0.00 | 0.05 | 0.00 | 37 | 1020.7 |
| 20260502180146 | 18 | 225 | 1.6 | 4.8 | 0.00 | 0.00 | 0.00 | 36 | 1020.6 |
| 20260502170146 | 21 | 180 | 3.2 | 6.4 | 0.00 | 0.00 | 0.00 | 30 | 1020.6 |
| 20260502164146 | 22 | 248 | 1.6 | 6.4 | 0.00 | 0.05 | 0.00 | 25 | 1020.8 |
| 20260502163646 | 23 | 135 | 1.6 | 6.4 | 0.00 | 0.05 | 0.00 | 25 | 1020.8 |
| 20260502163146 | 23 | 225 | 1.6 | 6.4 | 0.00 | 0.05 | 0.00 | 24 | 1021.0 |
| 20260502162646 | 23 | 225 | 1.6 | 6.4 | 0.00 | 0.05 | 0.00 | 24 | 1020.9 |
| 20260502162146 | 24 | 158 | 1.6 | 4.8 | 0.00 | 0.05 | 0.00 | 24 | 1020.9 |
| 20260502161646 | 25 | 135 | 3.2 | 8.0 | 0.00 | 0.05 | 0.00 | 24 | 1021.0 |
| 20260502161146 | 25 | 135 | 1.6 | 6.4 | 0.00 | 0.05 | 0.00 | 23 | 1021.0 |
| 20260502160646 | 25 | 135 | 3.2 | 12.9 | 0.00 | 0.05 | 0.00 | 23 | 1021.1 |
| 20260502160146 | 25 | 90 | 4.8 | 12.9 | 0.00 | 0.00 | 0.00 | 22 | 1021.2 |
| 20260502152146 | 25 | 180 | 3.2 | 8.0 | 0.00 | 0.05 | 0.00 | 22 | 1021.6 |
| 20260502151646 | 26 | 180 | 4.8 | 14.5 | 0.00 | 0.05 | 0.00 | 22 | 1021.6 |
| 20260502151146 | 25 | 180 | 3.2 | 9.7 | 0.00 | 0.05 | 0.00 | 22 | 1021.6 |
| 20260502150646 | 26 | 113 | 3.2 | 8.0 | 0.00 | 0.05 | 0.00 | 22 | 1021.7 |
| 20260502150146 | 26 | 135 | 3.2 | 9.7 | 0.00 | 0.00 | 0.00 | 21 | 1021.8 |
| 20260502130645 | 25 | 135 | 3.2 | 9.7 | 0.00 | 0.05 | 0.00 | 22 | 1022.9 |
| 20260502130146 | 25 | 90 | 1.6 | 6.4 | 0.00 | 0.00 | 0.00 | 22 | 1023.0 |
| 20260502123645 | 24 | 225 | 1.6 | 6.4 | 0.00 | 0.05 | 0.00 | 23 | 1023.2 |
| 20260502123145 | 24 | 180 | 4.8 | 12.9 | 0.00 | 0.05 | 0.00 | 23 | 1023.1 |
| 20260502122645 | 23 | 360 | 3.2 | 9.7 | 0.00 | 0.05 | 0.00 | 23 | 1023.3 |
| 20260502122145 | 24 | 90 | 4.8 | 11.3 | 0.00 | 0.05 | 0.00 | 24 | 1023.3 |
| 20260502121646 | 24 | 90 | 3.2 | 8.0 | 0.00 | 0.05 | 0.00 | 23 | 1023.5 |
| 20260502121146 | 25 | 135 | 3.2 | 6.4 | 0.00 | 0.05 | 0.00 | 23 | 1023.5 |
| 20260502120645 | 24 | 135 | 3.2 | 8.0 | 0.00 | 0.05 | 0.00 | 23 | 1023.5 |
| 20260502120146 | 24 | 225 | 3.2 | 11.3 | 0.00 | 0.00 | 0.00 | 25 | 1023.5 |
| 20260502115645 | 24 | 225 | 3.2 | 11.3 | 0.00 | 0.05 | 0.00 | 25 | 1023.5 |
| 20260502115145 | 24 | 90 | 1.6 | 6.4 | 0.00 | 0.05 | 0.00 | 23 | 1023.6 |
| 20260502114646 | 24 | 360 | 1.6 | 4.8 | 0.00 | 0.05 | 0.00 | 23 | 1023.6 |
| 20260502114145 | 24 | 135 | 3.2 | 12.9 | 0.00 | 0.05 | 0.00 | 23 | 1023.7 |
| 20260502113645 | 24 | 113 | 3.2 | 9.7 | 0.00 | 0.05 | 0.00 | 23 | 1023.8 |
| 20260502113146 | 24 | 135 | 3.2 | 8.0 | 0.00 | 0.05 | 0.00 | 25 | 1023.8 |
| 20260502112845 | 23 | 90 | 3.2 | 11.3 | 0.00 | 0.05 | 0.00 | 23 | 1023.9 |
| 20260502112345 | 23 | 135 | 3.2 | 11.3 | 0.00 | 0.05 | 0.00 | 25 | 1024.0 |
| 20260502111845 | 23 | 113 | 4.8 | 12.9 | 0.00 | 0.05 | 0.00 | 23 | 1024.1 |
| 20260502111344 | 23 | 270 | 3.2 | 8.0 | 0.00 | 0.05 | 0.00 | 25 | 1024.2 |
| 20260502110844 | 23 | 225 | 1.6 | 6.4 | 0.00 | 0.05 | 0.00 | 23 | 1024.1 |
| 20260502110345 | 23 | 45 | 3.2 | 6.4 | 0.00 | 0.05 | 0.00 | 25 | 1024.3 |
| 20260502105845 | 23 | 90 | 3.2 | 11.3 | 0.00 | 0.05 | 0.00 | 25 | 1024.3 |
| 20260502105344 | 23 | 180 | 1.6 | 6.4 | 0.00 | 0.05 | 0.00 | 25 | 1024.5 |
| 20260502104845 | 23 | 180 | 4.8 | 12.9 | 0.00 | 0.05 | 0.00 | 26 | 1024.4 |
| 20260502104345 | 23 | 90 | 3.2 | 9.7 | 0.00 | 0.05 | 0.00 | 26 | 1024.4 |
| 20260502103844 | 23 | 90 | 3.2 | 9.7 | 0.00 | 0.05 | 0.00 | 26 | 1024.6 |
| 20260502103344 | 23 | 135 | 4.8 | 12.9 | 0.00 | 0.05 | 0.00 | 25 | 1024.4 |
| 20260502102844 | 23 | 158 | 3.2 | 11.3 | 0.00 | 0.05 | 0.00 | 25 | 1024.4 |
| 20260502102344 | 23 | 135 | 3.2 | 11.3 | 0.05 | 0.05 | 0.00 | 26 | 1024.5 |
| 20260502101844 | 23 | 45 | 3.2 | 6.4 | 0.05 | 0.05 | 0.00 | 26 | 1024.6 |
| 20260502101344 | 23 | 135 | 1.6 | 6.4 | 0.05 | 0.05 | 0.00 | 25 | 1024.7 |
| 20260502100845 | 23 | 180 | 1.6 | 4.8 | 0.05 | 0.05 | 0.00 | 26 | 1024.7 |
| 20260502100344 | 23 | 45 | 1.6 | 4.8 | 0.05 | 0.05 | 0.00 | 25 | 1024.8 |
| 20260502091345 | 22 | 360 | 1.6 | 3.2 | 0.00 | 0.00 | 0.00 | 31 | 1025.4 |
| 20260502090844 | 22 | 135 | 4.8 | 11.3 | 0.00 | 0.00 | 0.00 | 30 | 1025.3 |
| 20260502090345 | 22 | 45 | 3.2 | 6.4 | 0.00 | 0.00 | 0.00 | 26 | 1025.5 |
| 20260502071344 | 19 | 90 | 1.6 | 4.8 | 0.00 | 0.15 | 0.00 | 40 | 1025.9 |
| 20260502070844 | 18 | 135 | 1.6 | 4.8 | 0.00 | 0.15 | 0.00 | 41 | 1025.9 |
| 20260502070345 | 18 | 45 | 1.6 | 3.2 | 0.00 | 0.15 | 0.00 | 41 | 1025.9 |
| 20260502065844 | 18 | 135 | 1.6 | 4.8 | 0.00 | 0.15 | 0.00 | 42 | 1025.9 |
| 20260502065344 | 17 | 135 | 1.6 | 4.8 | 0.00 | 0.15 | 0.00 | 41 | 1025.9 |
| 20260502064844 | 17 | 45 | 1.6 | 3.2 | 0.00 | 0.15 | 0.00 | 42 | 1025.9 |
| 20260502064344 | 17 | 90 | 1.6 | 4.8 | 0.00 | 0.15 | 0.00 | 47 | 1025.9 |
| 20260502063845 | 17 | 135 | 1.6 | 4.8 | 0.00 | 0.15 | 0.00 | 46 | 1026.0 |
| 20260502063344 | 17 | 45 | 1.6 | 4.8 | 0.00 | 0.15 | 0.00 | 46 | 1025.9 |
| 20260502062844 | 17 | 90 | 1.6 | 3.2 | 0.00 | 0.15 | 0.00 | 46 | 1025.9 |
| 20260502062344 | 17 | 135 | 1.6 | 4.8 | 0.00 | 0.15 | 0.00 | 44 | 1026.1 |
| 20260502061844 | 17 | 180 | 1.6 | 3.2 | 0.00 | 0.15 | 0.00 | 46 | 1026.0 |
| 20260502061344 | 16 | 180 | 1.6 | 3.2 | 0.00 | 0.15 | 0.00 | 47 | 1026.1 |
| 20260502060844 | 16 | 180 | 1.6 | 3.2 | 0.00 | 0.15 | 0.00 | 47 | 1026.0 |
| 20260502060344 | 15 | 90 | 1.6 | 3.2 | 0.00 | 0.15 | 0.00 | 47 | 1026.1 |
| 20260502055844 | 15 | 90 | 1.6 | 3.2 | 0.00 | 0.15 | 0.00 | 48 | 1026.0 |
| 20260502055344 | 15 | 90 | 1.6 | 3.2 | 0.00 | 0.15 | 0.00 | 48 | 1025.9 |
| 20260502054844 | 15 | 135 | 0.0 | 3.2 | 0.00 | 0.15 | 0.00 | 48 | 1025.9 |
| 20260502054344 | 15 | 135 | 1.6 | 3.2 | 0.00 | 0.15 | 0.00 | 47 | 1026.0 |
| 20260502053844 | 14 | 135 | 1.6 | 3.2 | 0.00 | 0.15 | 0.00 | 50 | 1025.8 |
| 20260502053344 | 14 | 158 | 0.0 | 3.2 | 0.00 | 0.15 | 0.00 | 50 | 1025.9 |
| 20260502052844 | 14 | 135 | 1.6 | 3.2 | 0.00 | 0.15 | 0.00 | 50 | 1026.0 |
| 20260502052344 | 15 | 180 | 0.0 | 3.2 | 0.00 | 0.15 | 0.00 | 50 | 1025.9 |
| 20260502051844 | 14 | 225 | 0.0 | 0.0 | 0.00 | 0.15 | 0.00 | 54 | 1025.8 |
| 20260502051344 | 13 | 360 | 0.0 | 0.0 | 0.00 | 0.15 | 0.00 | 56 | 1026.0 |
| 20260502050844 | 12 | 360 | 0.0 | 0.0 | 0.00 | 0.15 | 0.00 | 56 | 1025.8 |
| 20260502050344 | 13 | 248 | 0.0 | 0.0 | 0.00 | 0.15 | 0.00 | 60 | 1025.9 |
| 20260502045844 | 12 | 225 | 0.0 | 0.0 | 0.00 | 0.15 | 0.00 | 61 | 1025.8 |
| 20260502045344 | 12 | 225 | 0.0 | 0.0 | 0.00 | 0.15 | 0.00 | 66 | 1025.7 |
| 20260502044844 | 11 | 225 | 0.0 | 0.0 | 0.00 | 0.15 | 0.00 | 67 | 1025.9 |
| 20260502044344 | 10 | 225 | 0.0 | 0.0 | 0.00 | 0.15 | 0.00 | 69 | 1025.8 |
| 20260502043844 | 9 | 225 | 0.0 | 0.0 | 0.00 | 0.15 | 0.00 | 70 | 1025.7 |
| 20260502043344 | 9 | 225 | 0.0 | 0.0 | 0.00 | 0.15 | 0.00 | 71 | 1025.7 |
| 20260502042844 | 8 | 225 | 0.0 | 0.0 | 0.00 | 0.15 | 0.00 | 72 | 1025.7 |
| 20260502042343 | 7 | 225 | 0.0 | 0.0 | 0.00 | 0.15 | 0.00 | 73 | 1025.7 |
| 20260502041844 | 7 | 158 | 0.0 | 0.0 | 0.00 | 0.15 | 0.00 | 80 | 1025.7 |
| 20260502041344 | 6 | 225 | 0.0 | 0.0 | 0.00 | 0.15 | 0.00 | 80 | 1025.5 |
| 20260502040843 | 6 | 225 | 0.0 | 1.6 | 0.00 | 0.15 | 0.00 | 80 | 1025.6 |
| 20260502040344 | 6 | 135 | 1.6 | 3.2 | 0.00 | 0.15 | 0.00 | 79 | 1025.6 |
| 20260502035844 | 6 | 158 | 0.0 | 0.0 | 0.00 | 0.15 | 0.00 | 77 | 1025.5 |